Probability
0 0 0 0 0 0 0 0 0 0 1 1 1 0 0 0 0 0 0 1 3 6 6 10 18 29 40 44 39 27 18 14 10 7 6 3 1 0 0 0 0 0 0
0 0 0 0 0 0 0 0 0 0 0 1 1 0 0 0 0 0 0 0 1 3 4 6 9 15 28 42 47 41 32 25 20 16 12 8 3 1 0 0 0 0 0
0 0 0 0 0 0 0 0 0 0 0 1 1 1 1 1 1 0 0 0 0 0 1 2 3 4 12 27 41 50 48 41 36 29 22 15 7 2 0 0 0 0 0
0 0 0 0 0 0 0 0 0 0 0 1 2 2 2 2 2 2 2 0 0 0 0 1 2 3 4 9 20 35 46 52 49 39 29 20 10 2 0 0 0 0 0
0 0 0 0 0 0 0 0 0 0 0 0 2 4 4 2 2 3 3 1 0 0 0 0 1 1 1 2 4 12 26 42 51 44 32 23 13 4 0 0 0 0 0
0 0 0 0 0 0 0 0 0 0 0 0 1 4 4 2 1 2 2 2 0 0 0 0 0 0 0 0 0 1 7 19 33 38 33 28 20 8 2 1 0 0 0
0 0 0 0 0 0 0 0 0 0 0 0 0 2 2 1 0 0 1 1 0 0 0 0 0 0 0 0 0 0 1 4 12 21 29 34 28 16 5 1 0 0 0
0 0 0 0 0 0 0 0 0 0 0 0 0 1 1 1 0 0 0 0 0 0 0 0 0 0 0 0 0 0 0 0 1 6 16 25 25 17 7 1 0 0 0
0 0 0 0 0 0 0 0 0 0 0 0 0 0 0 0 0 0 0 0 1 0 0 0 0 0 0 0 0 0 0 0 0 1 4 8 10 7 3 1 0 0 0
0 0 0 0 0 0 0 0 0 0 0 0 0 0 0 0 0 0 0 0 0 0 0 0 0 0 0 0 0 0 0 0 1 1 0 0 1 1 1 0 0 0 0
0 0 0 0 0 0 0 0 0 0 0 0 0 0 0 0 0 0 0 0 0 0 0 0 0 0 0 0 0 0 0 1 2 2 2 2 2 2 1 0 0 0 0
0 0 0 0 0 0 0 0 0 0 0 0 0 0 0 0 0 0 0 0 0 0 0 0 0 0 0 0 0 0 0 1 2 4 5 5 3 2 1 0 0 0 0
0 0 0 0 0 0 0 0 0 0 0 0 0 0 0 0 0 0 0 0 0 0 0 0 0 0 0 0 0 0 0 0 2 4 6 7 5 2 1 0 0 0 0
0 0 0 0 0 0 0 0 0 0 0 0 0 0 0 0 0 0 0 0 0 0 0 0 0 0 0 0 0 0 0 0 1 3 5 7 6 3 1 0 0 0 0
0 0 0 0 0 0 0 0 0 0 0 0 0 0 0 0 0 0 0 0 0 0 0 0 0 0 0 0 0 0 0 0 1 2 4 5 3 1 0 0 0 0 0
0 0 0 0 0 0 0 0 0 0 0 0 0 0 0 0 0 0 0 0 0 0 0 0 0 0 0 0 0 0 0 0 0 1 2 2 1 0 0 0 0 0 0
0 0 0 0 0 0 0 0 0 0 0 0 0 0 0 0 0 0 0 0 0 0 0 0 0 0 0 0 0 0 0 0 0 0 1 1 0 0 0 0 0 0 0
0 0 0 0 0 0 0 0 0 0 0 0 0 0 0 0 0 0 0 0 0 0 0 0 0 0 0 0 0 0 0 0 0 0 0 0 0 0 0 0 0 0 0
0 0 0 0 0 0 0 0 0 0 0 0 0 0 0 0 0 0 0 0 0 0 0 0 0 0 0 0 0 0 0 0 0 0 0 0 0 0 0 0 0 0 0
0 0 0 0 0 0 0 0 0 0 0 0 0 0 0 0 0 0 0 0 0 0 0 0 0 0 0 0 0 0 0 0 0 0 0 0 0 0 0 0 0 0 0
0 0 0 0 0 0 0 0 0 0 0 0 0 0 0 0 0 0 0 0 0 0 0 0 0 0 0 0 0 0 0 0 0 0 0 0 0 0 0 0 0 0 0
0 0 0 0 0 0 0 0 0 0 0 0 0 0 0 0 0 0 0 0 0 0 0 0 0 0 0 0 0 0 0 0 0 0 0 0 0 0 0 0 0 0 0
0 0 0 0 0 0 0 0 0 0 0 0 0 0 0 0 0 0 0 0 0 0 0 0 0 0 0 0 0 0 0 0 0 0 0 0 0 0 0 0 0 0 0
0 0 0 0 0 0 0 0 0 0 0 0 0 0 0 0 0 0 0 0 0 0 0 0 0 0 0 0 0 0 0 0 0 0 0 0 0 0 0 0 0 0 0
0 0 0 0 0 0 0 0 0 0 0 0 0 0 0 0 0 0 0 0 0 0 0 0 0 0 0 0 0 0 0 0 0 0 0 0 0 0 0 0 0 0 0
0 0 0 0 0 0 0 0 0 0 0 0 0 0 0 0 0 0 0 0 0 0 0 0 0 0 0 0 0 0 0 0 0 0 0 0 0 0 0 0 0 0 0
Wind_Speed
15 15 15 15 15 14 13 14 13 13 14 14 14 14 13 12 11 9 9 8 8 7 7 9 11 11 8 8 8 8 8 7 7 5 5 4 4 4 5 5 5 6 8
15 15 16 15 15 15 15 15 14 14 14 15 15 15 15 15 13 12 12 10 10 10 9 8 8 8 11 9 8 10 9 8 8 7 6 6 6 6 7 6 6 6 7
16 16 16 16 16 16 16 15 15 15 15 15 15 15 16 16 15 14 14 12 11 11 10 10 9 7 7 7 9 9 8 9 9 7 7 5 6 7 8 7 8 7 8
16 16 16 16 16 16 16 16 16 15 15 15 16 16 16 16 16 16 15 14 13 12 11 11 11 10 8 6 6 7 7 9 10 9 7 7 7 8 8 7 6 5 6
15 16 16 16 16 16 16 16 16 16 16 15 16 16 17 16 16 16 15 15 14 13 13 12 12 12 12 9 6 5 6 6 8 9 8 8 8 9 8 7 7 6 5
15 16 16 16 17 17 17 17 16 16 16 16 16 16 17 16 15 14 14 15 13 13 13 12 12 13 14 14 12 9 7 8 8 8 9 9 10 11 9 9 9 8 5
15 15 16 16 17 17 17 17 17 16 16 15 16 16 16 17 13 12 14 15 14 12 12 11 11 12 15 13 14 14 12 11 11 9 9 9 10 11 12 13 11 9 7
15 15 16 16 17 17 17 17 16 14 14 14 14 15 15 14 12 13 13 16 14 13 12 12 12 10 12 12 12 12 11 10 11 11 10 10 8 10 13 12 11 10 10
15 15 16 16 17 17 17 16 14 13 13 13 13 13 13 11 11 12 13 12 11 12 12 13 12 12 10 10 10 10 10 9 10 12 12 8 7 7 11 11 12 12 9
15 15 16 16 17 17 17 15 13 11 12 11 11 11 11 9 9 12 12 10 10 10 10 10 10 10 10 12 11 10 10 8 8 9 10 9 8 10 15 15 14 13 11
15 16 16 16 16 16 14 13 12 10 10 10 10 9 9 8 8 11 11 9 8 8 8 8 9 13 11 12 10 9 7 6 8 9 9 10 9 9 12 12 12 13 13
14 15 16 15 14 12 13 12 11 10 9 9 8 7 5 5 7 10 12 9 6 8 7 6 5 13 13 12 10 6 4 6 8 8 9 9 9 9 9 8 8 7 6
14 15 14 15 14 12 12 11 9 8 6 6 5 5 3 4 6 9 11 9 8 7 6 1 5 10 11 11 10 8 8 8 8 9 10 9 9 10 10 8 9 9 10
14 14 13 13 12 11 9 8 7 6 6 5 4 4 3 3 5 8 9 10 11 10 9 7 10 10 9 6 8 10 9 8 8 9 9 8 8 10 10 10 11 11 10
14 13 12 11 11 10 9 7 7 6 4 5 5 4 3 3 3 2 4 5 6 7 7 7 8 9 9 9 8 7 7 7 8 8 8 9 10 10 11 11 12 11 10
12 11 10 9 9 8 8 7 2 3 2 3 5 5 3 2 3 1 2 3 2 2 6 8 8 9 9 8 8 7 7 7 7 7 8 9 11 12 12 12 12 12 13
12 12 10 9 9 8 8 7 5 1 4 2 1 2 3 3 2 2 3 3 3 5 8 8 8 8 7 7 6 6 5 5 5 6 7 10 12 13 13 13 13 12 12
12 12 10 9 9 8 7 7 6 6 2 2 3 2 1 1 2 4 5 7 6 8 9 8 7 6 6 6 5 5 4 4 5 6 7 10 12 14 15 14 13 14 13
12 9 8 9 9 7 7 7 6 6 3 2 1 4 3 3 4 5 8 7 6 7 7 6 5 5 5 5 4 4 4 4 5 6 8 10 11 14 14 14 13 15 14
10 12 11 9 9 7 6 6 6 5 3 2 1 1 3 3 3 4 5 4 4 5 5 5 5 5 5 4 4 4 4 4 6 6 7 10 11 12 14 15 14 14 13
9 9 11 9 7 6 6 5 5 4 4 2 2 3 3 2 2 4 4 3 4 4 4 4 4 4 4 4 4 4 5 4 5 7 8 10 11 12 12 12 13 13 12
9 8 8 7 7 6 6 5 4 3 3 2 1 3 3 4 2 2 3 3 3 3 3 4 4 3 3 4 4 4 4 5 6 8 9 10 10 11 12 12 12 12 11
9 9 8 7 6 5 5 4 3 3 3 2 1 0 2 2 1 1 2 2 3 3 3 3 3 2 2 2 3 4 4 5 6 8 10 11 11 11 11 12 13 13 13
9 9 9 8 7 6 5 5 4 3 3 2 1 0 1 2 2 2 2 2 2 2 2 3 2 3 4 3 3 4 4 5 6 8 12 12 12 11 11 11 12 14 13
8 9 8 8 7 7 5 4 4 3 3 2 2 1 1 2 2 2 2 2 2 1 2 2 2 3 6 7 6 5 6 5 5 7 10 11 13 13 13 14 12 13 12
9 9 8 7 7 6 6 5 4 3 3 2 2 1 0 1 1 0 0 1 1 2 2 2 4 6 7 6 8 9 8 6 5 5 8 11 13 13 14 12 15 13 14
Wind_Direction
315 315 312 308 306 301 295 290 287 283 281 271 260 253 247 238 228 222 232 228 233 240 247 253 252 252 245 231 224 219 217 222 229 196 169 153 166 154 125 105 88 81 76
315 312 309 307 304 301 299 298 294 286 279 272 265 257 251 245 237 230 231 230 229 231 232 237 250 252 248 244 234 222 216 215 222 215 189 178 172 154 129 115 100 85 81
313 310 308 307 306 305 304 300 296 290 282 275 267 259 253 250 245 237 234 234 232 232 230 226 229 235 255 252 244 233 221 212 220 220 204 176 162 148 134 118 105 98 90
311 309 307 307 307 306 303 301 296 291 286 278 269 262 254 248 244 241 234 232 233 233 230 227 224 216 223 244 259 253 241 222 212 218 207 185 167 163 156 147 134 117 101
309 308 308 308 307 304 302 300 298 293 287 281 274 265 256 248 241 236 235 230 228 233 231 227 223 213 206 206 222 252 264 244 219 212 209 196 177 170 174 168 143 127 100
308 306 307 305 303 301 300 297 295 292 289 284 276 268 258 249 238 225 229 236 230 230 233 230 222 204 204 201 205 213 237 254 240 220 212 207 191 183 176 165 153 155 134
304 303 303 303 302 301 300 297 295 293 291 286 280 271 261 254 246 220 214 232 231 228 230 229 228 208 193 199 199 203 217 236 252 257 240 226 202 187 176 174 176 171 138
303 303 306 308 306 303 300 296 294 292 289 286 282 275 266 252 232 214 204 224 231 227 226 223 227 221 198 197 195 198 207 215 227 242 252 252 239 195 182 177 154 120 111
304 308 309 310 306 303 300 299 298 293 290 285 282 275 266 249 221 201 199 218 222 226 225 222 219 220 193 185 208 208 209 214 216 227 242 260 279 202 170 155 147 142 134
308 309 308 306 304 303 302 302 299 293 289 284 280 273 263 242 202 187 197 219 219 221 220 222 218 223 184 180 213 220 220 216 212 210 221 228 223 179 166 170 166 159 144
308 306 306 304 305 304 306 305 302 296 292 286 283 274 260 235 186 181 195 224 225 222 223 218 209 181 180 188 218 232 232 229 220 217 212 209 202 185 180 180 178 171 161
305 304 306 307 307 308 309 307 305 300 295 290 287 276 252 212 187 181 188 214 257 248 239 232 195 164 177 189 209 223 220 230 229 219 212 200 189 180 177 172 163 156 147
304 303 305 308 309 308 308 308 308 305 301 297 291 275 246 202 170 172 184 199 218 244 246 188 141 160 177 194 211 210 213 223 226 220 212 200 181 166 154 139 118 101 98
305 304 305 307 309 314 312 309 312 313 310 305 299 283 242 202 189 183 186 192 200 218 227 185 170 181 216 227 193 201 219 224 224 223 211 187 160 153 151 146 139 132 123
308 306 305 306 311 313 313 315 319 333 338 312 306 293 258 217 173 164 222 212 217 213 205 200 202 196 205 212 216 214 215 214 218 222 205 176 160 153 150 150 149 147 146
309 307 305 306 309 312 313 315 243 267 319 298 294 304 308 34 75 149 252 288 307 207 211 210 210 210 212 214 216 213 214 215 214 213 200 172 160 155 151 153 156 156 156
308 306 302 303 307 312 313 315 322 204 173 152 12 319 304 328 297 250 234 227 215 198 220 222 216 215 218 219 218 218 219 213 205 202 191 168 159 156 154 156 159 159 159
311 303 297 296 302 308 312 315 320 330 343 138 132 88 21 289 242 215 188 188 190 207 225 222 215 216 219 222 217 213 220 208 197 192 180 166 160 157 156 158 161 161 161
312 306 304 301 302 308 313 317 322 329 343 25 114 128 117 126 136 162 188 216 202 199 216 223 221 221 220 217 215 213 214 204 188 183 172 162 159 157 157 158 159 160 162
311 308 304 300 303 316 323 323 330 338 350 13 12 93 147 181 162 167 204 221 214 208 216 224 227 228 221 210 201 204 199 193 177 176 168 158 157 155 154 156 157 161 165
313 312 305 296 309 328 331 331 336 343 351 359 28 57 0 270 180 181 195 206 215 214 214 226 226 223 212 194 188 191 187 182 170 164 159 153 152 151 151 153 156 161 165
318 316 316 317 325 333 335 331 340 346 346 348 341 143 191 253 227 190 196 204 215 221 216 226 231 222 206 186 171 172 180 171 161 155 153 147 146 147 148 151 157 163 166
324 324 323 322 323 327 318 330 351 350 345 343 326 266 212 237 232 231 229 221 220 221 212 217 225 201 175 153 152 163 169 159 155 152 149 146 146 147 149 154 159 162 165
331 331 332 330 330 334 344 343 353 3 0 347 346 237 230 235 239 238 245 244 241 218 199 205 200 165 157 148 143 147 151 153 155 152 149 146 145 146 147 151 157 162 165
337 336 336 336 337 339 345 351 358 14 20 4 20 16 263 246 237 229 232 230 227 206 199 193 162 154 153 152 143 133 131 138 151 151 149 145 143 144 148 153 156 160 159
341 340 339 339 343 341 346 355 0 14 36 38 39 30 9 340 6 24 114 144 167 187 193 176 160 145 146 146 130 126 128 132 139 151 146 143 144 146 149 151 152 155 156